Location: Coupvray
(48.8929°N, 2.7967°E)
Time: 08:24:37
(UTC+00:00)

X-37B - Pass Details

Date: 04 October 2020
Orbit: 382 x 392 km, 45.0° (Epoch: 15 October)

Event Time Altitude Azimuth Distance (km) Brightness Sun altitude
Rises 18:47:04 0° 228° (SW) 2,258 5.0 -15.0°
Reaches altitude 10° 18:49:25 10° 212° (SSW) 1,405 3.7 -15.4°
Enters shadow 18:51:52 22° 161° (SSE) 899 2.1 -15.8°
